Location: Allie Creek
(37.5926°N, 89.8526°W)
Time: 05:28:33
(UTC+00:00)

Cosmos 1842 Rocket - Pass Details

Date: 26 September 2023
Orbit: 603 x 631 km, 82.5° (Epoch: 29 November)

Event Time Altitude Azimuth Distance (km) Brightness Sun altitude
Exits shadow 10:32:33 28° 245° (WSW) 1,176 4.4 -16.2°
Maximum altitude 10:33:56 35° 282° (WNW) 1,020 4.2 -15.9°
Drops below altitude 10° 10:38:03 10° 349° (NNW) 2,020 6.2 -15.1°
Sets 10:40:28 0° 358° (N) 2,933 7.1 -14.6°
